RYR3YU LROP-LIME

Flight info

Callsign RYR3YU
Flight time N/A
Altitude 36000
Route SOKRU DCT SOSIL DCT CE DCT EPOMI DCT ELTAR
Aircraft B738/M-SDE2E3FGHIRWXY/LB1

Departure

Time N/A
Airport Bucharest Henri Coandă International Airport (LROP)

Arrival

Time 2026-05-05 10:54
Airport Il Caravaggio International Airport (LIME)
Time Latitude Longitude Altitude Speed Heading
2026-05-05 10:24 45.65134 13.98589 36024 ft 448 kts 270°
2026-05-05 10:25 45.65206 13.89705 36023 ft 449 kts 270°
2026-05-05 10:25 45.65288 13.80804 35757 ft 450 kts 270°
2026-05-05 10:26 45.65340 13.76388 35540 ft 450 kts 270°
2026-05-05 10:26 45.65394 13.71904 35311 ft 450 kts 270°
2026-05-05 10:26 45.65448 13.67399 35081 ft 449 kts 270°
2026-05-05 10:26 45.65499 13.62972 35029 ft 448 kts 270°
2026-05-05 10:27 45.65593 13.54027 35028 ft 452 kts 270°
2026-05-05 10:27 45.65678 13.45104 35027 ft 451 kts 270°
2026-05-05 10:28 45.65759 13.36121 35021 ft 450 kts 270°
2026-05-05 10:28 45.65830 13.27203 35017 ft 450 kts 269°
2026-05-05 10:29 45.65893 13.18244 35015 ft 450 kts 269°
2026-05-05 10:29 45.65950 13.09329 35008 ft 449 kts 269°
2026-05-05 10:30 45.66001 13.00423 35009 ft 449 kts 269°
2026-05-05 10:30 45.66043 12.91523 35013 ft 448 kts 269°
2026-05-05 10:31 45.66079 12.82597 35004 ft 446 kts 269°
2026-05-05 10:31 45.66110 12.73722 35004 ft 448 kts 269°
2026-05-05 10:32 45.66130 12.64926 35004 ft 447 kts 269°
2026-05-05 10:32 45.66141 12.56024 35009 ft 447 kts 269°
2026-05-05 10:33 45.66146 12.47418 35010 ft 446 kts 269°
2026-05-05 10:33 45.66150 12.38635 35008 ft 444 kts 269°
2026-05-05 10:34 45.66148 12.29843 35006 ft 445 kts 268°
2026-05-05 10:34 45.66138 12.20978 35007 ft 445 kts 268°
2026-05-05 10:35 45.66120 12.12211 35005 ft 443 kts 268°
2026-05-05 10:35 45.66093 12.03448 34999 ft 438 kts 268°
2026-05-05 10:36 45.66079 11.99187 34812 ft 430 kts 268°
2026-05-05 10:36 45.66063 11.94898 34241 ft 427 kts 268°
2026-05-05 10:36 45.66047 11.90657 33511 ft 427 kts 268°
2026-05-05 10:36 45.66027 11.86441 32741 ft 428 kts 267°
2026-05-05 10:37 45.66006 11.82275 31952 ft 430 kts 267°
2026-05-05 10:37 45.65982 11.78020 31119 ft 432 kts 267°
2026-05-05 10:37 45.65956 11.73821 30278 ft 434 kts 267°
2026-05-05 10:37 45.65927 11.69554 29385 ft 437 kts 267°
2026-05-05 10:38 45.65896 11.65256 28463 ft 440 kts 266°
2026-05-05 10:38 45.65866 11.60955 27513 ft 443 kts 267°
2026-05-05 10:38 45.65837 11.56643 26521 ft 446 kts 267°
2026-05-05 10:38 45.65803 11.52161 25463 ft 458 kts 267°
2026-05-05 10:39 45.65766 11.47580 24454 ft 460 kts 267°
2026-05-05 10:39 45.65731 11.43049 23776 ft 454 kts 267°
2026-05-05 10:39 45.65697 11.38590 23096 ft 449 kts 267°
2026-05-05 10:39 45.65660 11.34144 22370 ft 444 kts 266°
2026-05-05 10:40 45.65620 11.29799 21647 ft 441 kts 266°
2026-05-05 10:40 45.65580 11.25451 20887 ft 437 kts 266°
2026-05-05 10:40 45.65537 11.21144 20132 ft 434 kts 266°
2026-05-05 10:40 45.65492 11.16860 19380 ft 431 kts 266°
2026-05-05 10:41 45.65445 11.12604 18623 ft 427 kts 266°
2026-05-05 10:41 45.65396 11.08368 17867 ft 424 kts 266°
2026-05-05 10:41 45.65346 11.04201 17129 ft 421 kts 266°
2026-05-05 10:41 45.65294 11.00054 16358 ft 417 kts 266°
2026-05-05 10:42 45.65188 10.92006 14922 ft 396 kts 266°
2026-05-05 10:42 45.65135 10.88085 14203 ft 394 kts 266°
2026-05-05 10:42 45.65081 10.84163 13525 ft 391 kts 266°
2026-05-05 10:43 45.65023 10.80331 12792 ft 388 kts 267°
2026-05-05 10:43 45.64970 10.76518 12117 ft 385 kts 267°
2026-05-05 10:43 45.64917 10.72726 11527 ft 380 kts 266°
2026-05-05 10:43 45.64864 10.68971 11120 ft 377 kts 266°
2026-05-05 10:44 45.64809 10.65228 10928 ft 379 kts 267°
2026-05-05 10:44 45.64742 10.61454 10789 ft 379 kts 266°
2026-05-05 10:44 45.64594 10.57680 10616 ft 379 kts 264°
2026-05-05 10:44 45.64385 10.54000 10443 ft 377 kts 263°
2026-05-05 10:45 45.64147 10.50231 10243 ft 375 kts 263°
2026-05-05 10:45 45.63912 10.46582 10010 ft 378 kts 263°
2026-05-05 10:45 45.63679 10.42867 9465 ft 374 kts 263°
2026-05-05 10:45 45.63462 10.39252 8990 ft 358 kts 263°
2026-05-05 10:46 45.63259 10.35794 8536 ft 342 kts 264°
2026-05-05 10:46 45.63078 10.32560 8141 ft 328 kts 264°
2026-05-05 10:46 45.62898 10.29360 7741 ft 317 kts 263°
2026-05-05 10:46 45.62719 10.26334 7351 ft 306 kts 264°
2026-05-05 10:47 45.62535 10.23369 6973 ft 297 kts 263°
2026-05-05 10:47 45.62358 10.20450 6597 ft 288 kts 264°
2026-05-05 10:47 45.62196 10.17655 6245 ft 280 kts 264°
2026-05-05 10:47 45.62038 10.14929 6059 ft 269 kts 264°
2026-05-05 10:48 45.61884 10.12315 5901 ft 265 kts 264°
2026-05-05 10:48 45.61728 10.09701 5661 ft 265 kts 264°
2026-05-05 10:48 45.61573 10.07099 5368 ft 266 kts 264°
2026-05-05 10:48 45.61415 10.04463 5075 ft 263 kts 264°
2026-05-05 10:49 45.61270 10.01868 4812 ft 263 kts 266°
2026-05-05 10:49 45.61373 9.99341 4642 ft 243 kts 279°
2026-05-05 10:49 45.61749 9.97090 4343 ft 225 kts 287°
2026-05-05 10:49 45.62179 9.95045 4044 ft 210 kts 287°
2026-05-05 10:50 45.62564 9.93087 3760 ft 199 kts 286°
2026-05-05 10:50 45.62921 9.91206 3483 ft 193 kts 286°
2026-05-05 10:50 45.63257 9.89437 3246 ft 179 kts 286°
2026-05-05 10:50 45.63575 9.87755 2975 ft 169 kts 286°
2026-05-05 10:51 45.63866 9.86213 2762 ft 157 kts 285°
2026-05-05 10:51 45.64149 9.84707 2569 ft 158 kts 285°
2026-05-05 10:51 45.64429 9.83226 2338 ft 155 kts 286°
2026-05-05 10:51 45.64714 9.81735 2131 ft 156 kts 286°
2026-05-05 10:52 45.64992 9.80245 1920 ft 154 kts 286°
2026-05-05 10:52 45.65269 9.78768 1713 ft 154 kts 286°
2026-05-05 10:52 45.65546 9.77287 1506 ft 154 kts 286°
2026-05-05 10:52 45.65824 9.75810 1299 ft 151 kts 286°
2026-05-05 10:53 45.66092 9.74377 1100 ft 150 kts 286°
2026-05-05 10:53 45.66370 9.72930 883 ft 150 kts 286°
2026-05-05 10:53 45.66630 9.71548 781 ft 128 kts 285°
2026-05-05 10:53 45.66798 9.70638 781 ft 74 kts 285°
2026-05-05 10:54 45.66881 9.70103 781 ft 32 kts 243°
2026-05-05 10:54 45.66739 9.70058 781 ft 21 kts 257°
2026-05-05 10:54 45.66770 9.69857 781 ft 18 kts 263°
2026-05-05 10:54 45.66679 9.69799 780 ft 0 kts 195°